Location: B�rgermoos
(47.6500°N, 9.0667°E)
Time: 18:26:03
(UTC+00:00)

A-11 Canister half - Pass Details

Date: 07 August 2021
Orbit: 1526 x 1683 km, 47.3° (Epoch: 20 September)

Event Time Altitude Azimuth Distance (km) Brightness Sun altitude
Rises 14:11:37 0° 287° (WNW) 4,929 12.1 44.3°
Reaches altitude 10° 14:14:51 10° 285° (WNW) 3,929 11.8 43.8°
Maximum altitude 14:24:43 64° 207° (SSW) 1,787 10.7 42.3°
Drops below altitude 10° 14:34:17 10° 129° (SE) 3,808 11.0 40.9°
Sets 14:37:21 0° 127° (SE) 4,770 11.3 40.4°
